Weather History for Juan Santamaria, Costa Rica

Change the Weather History Date:

Tuesday, October 25, 2011

  Actual Average Record
Temperature  
Mean Temperature 73 °F -  
Max Temperature 82 °F 78 °F - ()
Min Temperature 64 °F 64 °F - ()
Cooling Degree Days 8    
Growing Degree Days 23 (Base 50)    
Moisture  
Dew Point 62 °F    
Average Humidity 72    
Maximum Humidity 94    
Minimum Humidity 41    
Precipitation  
Precipitation 0.00 in 0.22 in - ()
Sea Level Pressure  
Sea Level Pressure 29.94 in    
Wind  
Wind Speed 6 mph ()    
Max Wind Speed 16 mph    
Max Gust Speed -    
Visibility 7.0 miles    
Events Fog    
T = Trace of Precipitation, MM = Missing Value Source: Averaged Metar Reports

Daily Weather History Graph

Daily Weather History Graph

Search for Another Location

Airport:

Trip Planner

Search our weather history database for the weather conditions in past years. The results will help you decide how hot, cold, wet, or windy it might be!

Date:

Astronomy

Oct. 25, 2011 Rise Set
Actual Time 5:26 AM CST 5:15 PM CST
Civil Twilight 5:04 AM CST 5:37 PM CST
Nautical Twilight 4:39 AM CST 6:01 PM CST
Astronomical Twilight 4:15 AM CST 6:26 PM CST
Moon 4:04 AM CST (10/25) 4:15 PM CST (10/25)
Length of Visible Light 12h 32m
Length of Day
11h 49m
Waning Crescent, 2% of the Moon is Illuminated
Oct 25
Waning Crescent
Oct 26
New
Nov 2
First Quarter
Nov 10
Full
Nov 18
Last Quarter

Hourly Weather History & Observations

Time (CST) Temp. Heat Index Dew Point Humidity Pressure Visibility Wind Dir Wind Speed Gust Speed Precip Events Conditions
12:00 AM 65 °F - 62 °F 86% 29.86 in 9 mi NNE 2.3 mph - -  
12:00 AM 64.4 °F - 62.6 °F 94% 30.01 in 6.2 mi NNE 2.3 mph - N/A Fog Scattered Clouds
1:00 AM 64.4 °F - 60.8 °F 88% 30.01 in - ENE 6.9 mph - N/A   Clear
2:00 AM 68.0 °F - 60.8 °F 78% 29.96 in - East 10.4 mph - N/A   Clear
3:00 AM 67 °F - 60 °F 73% 29.82 in 12 mi East 8.1 mph - -   Partly Cloudy
3:00 AM 68.0 °F - 60.8 °F 78% 29.95 in - East 8.1 mph - N/A   Clear
4:00 AM 66.2 °F - 60.8 °F 83% 29.96 in - ENE 6.9 mph - N/A   Clear
5:00 AM 64.4 °F - 60.8 °F 88% 29.97 in - NNE 6.9 mph - N/A   Clear
6:00 AM 67 °F - 60 °F 73% 29.86 in 12 mi NE 8.1 mph - -   Scattered Clouds
6:00 AM 66.2 °F - 60.8 °F 83% 29.99 in - NE 8.1 mph - N/A   Clear
7:00 AM 73.4 °F - 62.6 °F 69% 30.00 in 6.2 mi NNE 4.6 mph - N/A   Unknown
8:00 AM 75.2 °F - 60.8 °F 61% 30.00 in 6.2 mi East 10.4 mph - N/A   Unknown
9:00 AM 77 °F - 61 °F 48% 29.91 in 12 mi East 10.4 mph - -  
9:00 AM 77.0 °F - 60.8 °F 57% 30.01 in 6.2 mi East 10.4 mph - N/A   Unknown
10:00 AM 78.8 °F - 60.8 °F 54% 30.00 in 6.2 mi East 10.4 mph - N/A   Partly Cloudy
11:00 AM 82.4 °F 82.9 °F 60.8 °F 48% 29.97 in 6.2 mi ENE 12.7 mph - N/A   Partly Cloudy
12:00 PM 80 °F - 61 °F 41% 29.83 in 12 mi ENE 9.2 mph - -   Partly Cloudy
12:00 PM 80.6 °F 81.5 °F 60.8 °F 51% 29.95 in 6.2 mi ENE 9.2 mph - N/A   Scattered Clouds
1:00 PM 80.6 °F 81.5 °F 60.8 °F 51% 29.92 in 6.2 mi ENE 10.4 mph - N/A   Scattered Clouds
2:00 PM 82.4 °F 82.5 °F 59.0 °F 45% 29.89 in 6.2 mi East 5.8 mph - N/A   Scattered Clouds
3:00 PM 73.4 °F - 68.0 °F 83% 29.88 in 6.2 mi West 16.1 mph - N/A   Mostly Cloudy
4:00 PM 69.8 °F - 68.0 °F 94% 29.90 in 1.2 mi West 12.7 mph - N/A   Mostly Cloudy
5:00 PM 69.8 °F - 68.0 °F 94% 29.93 in 2.5 mi WNW 5.8 mph - N/A   Mostly Cloudy
6:00 PM 69.8 °F - 68.0 °F 94% 29.94 in 2.5 mi NNW 3.5 mph - N/A   Mostly Cloudy
7:00 PM 69.8 °F - 66.2 °F 88% 29.95 in 6.2 mi Calm Calm - N/A   Scattered Clouds
8:00 PM 69.8 °F - 60.8 °F 73% 29.96 in 6.2 mi SE 10.4 mph - N/A   Partly Cloudy
9:00 PM 70 °F - 61 °F 65% 29.85 in 12 mi East 6.9 mph - -   Scattered Clouds
9:00 PM 69.8 °F - 60.8 °F 73% 29.98 in 6.2 mi East 6.9 mph - N/A   Partly Cloudy
10:00 PM 69.8 °F - 60.8 °F 73% 29.99 in 6.2 mi ESE 8.1 mph - N/A   Partly Cloudy
11:00 PM 69.8 °F - 60.8 °F 73% 29.98 in - ESE 6.9 mph - N/A   Clear